Flag for Albania Weather past 2 weeks in Durrës, Albania

72 °F

Broken clouds.

Feels Like: 75 °F
Forecast: 67 / 74 °F
Wind: 5 mph from North

Location: Tirana Airport

Current Time: Oct 6, 2015 at 6:24:43 PM

Latest Report: Oct 6, 2015 at 5:50 PM

Visibility: N/A

Pressure: 29.86 "Hg

Humidity: 65%

Dew point: 59 °F

Location of DurrësLocation

Historic Weather in Durrës — Graph


Durrës temperature yesterday

Maximum temperature yesterday: 82 °F (at 11:50 AM)
Minimum temperature yesterday: 59 °F (at 4:20 AM)
Average temperature yesterday: 68 °F

Past Weeks' High & Low Weather Summary

High84 °F (Sep 23, 1:20 PM)94% (Sep 23, 2:50 AM)30.27 "Hg (Sep 23, 2:50 AM)
Low54 °F (Sep 26, 5:50 AM)26% (Oct 2, 3:20 PM)29.68 "Hg (Sep 21, 5:20 PM)
Average68 °F65%30.00 "Hg
* Reported Sep 21 5:20 PM — Oct 6 5:20 PM, Durrës, Weather by CustomWeather, © 2015

Note: Actual official high and low records may vary slightly from our data, if they occured in-between our weather recording intervals... More about our weather records


Durrës weather history for previous 24 hours

Time TempWeatherWind HumidityBarometerVisibility
5:20 PM
Tue, Oct 6
72 °FBroken clouds.5 mph61%29.86 "HgN/A
4:50 PM73 °FBroken clouds.6 mph57%29.86 "HgN/A
4:20 PM73 °FBroken clouds.8 mph57%29.86 "HgN/A
3:50 PM73 °FScattered clouds.7 mph53%29.86 "HgN/A
3:20 PM77 °FScattered clouds.3 mph51%29.86 "HgN/A
2:50 PM75 °FScattered clouds.3 mph50%29.86 "HgN/A
2:20 PM77 °FBroken clouds.3 mph47%29.86 "HgN/A
1:50 PM77 °FBroken clouds.2 mph47%29.89 "HgN/A
1:20 PM77 °FBroken clouds.3 mph51%29.89 "HgN/A
12:50 PM75 °FPartly sunny.No wind47%29.89 "HgN/A
12:20 PM75 °FPartly sunny.No wind47%29.92 "HgN/A
11:50 AM72 °FPartly sunny.2 mph50%29.92 "HgN/A
11:20 AM70 °FPartly sunny.2 mph57%29.92 "HgN/A
10:50 AM72 °FBroken clouds.No wind57%29.92 "HgN/A
10:20 AM70 °FPartly sunny.3 mph64%29.92 "HgN/A
9:50 AM68 °FPartly sunny.2 mph64%29.95 "HgN/A
9:20 AM66 °FPartly sunny.3 mph68%29.95 "HgN/A
8:50 AM64 °FScattered clouds.5 mph78%29.95 "HgN/A
8:20 AM61 °FSunny.2 mph94%29.95 "Hg10 mi
7:50 AM59 °FFog.2 mph94%29.95 "Hg1 mi
7:20 AM57 °FFog.2 mph94%29.92 "Hg1 mi
6:50 AM57 °FFog.2 mph94%29.92 "Hg1 mi
6:20 AM57 °FFog.2 mph94%29.92 "Hg1 mi
5:50 AM57 °FFog.2 mph94%29.92 "Hg1 mi
5:20 AM57 °FFog.3 mph94%29.92 "Hg1 mi
4:50 AM59 °FFog.3 mph88%29.92 "Hg1 mi
4:20 AM57 °FFog.2 mph94%29.92 "Hg1 mi
3:50 AM57 °FFog.No wind94%29.95 "Hg1 mi
3:20 AM59 °FFog.2 mph94%29.95 "Hg1 mi
2:50 AM59 °FFog.No wind94%29.95 "Hg2 mi
2:20 AM59 °FFog.No wind94%29.95 "Hg1 mi
1:50 AM61 °FFog.No wind88%29.95 "Hg1 mi
1:20 AM61 °FFog.No wind94%29.95 "Hg2 mi
12:50 AM63 °FFog.No wind88%29.95 "Hg2 mi
12:20 AM63 °FFog.2 mph94%29.98 "Hg2 mi
11:20 PM
Mon, Oct 5
63 °FFog.No wind88%29.98 "Hg3 mi
10:50 PM64 °FPassing clouds.No wind88%29.98 "HgN/A
10:20 PM66 °FPassing clouds.2 mph88%29.98 "HgN/A
9:50 PM66 °FPartly cloudy.3 mph88%29.98 "HgN/A
9:20 PM68 °FPartly cloudy.3 mph88%29.98 "HgN/A
8:50 PM68 °FPassing clouds.No wind88%29.98 "HgN/A
8:20 PM70 °FOvercast.3 mph83%29.98 "HgN/A
7:50 PM68 °FPassing clouds.No wind83%29.98 "HgN/A
7:20 PM70 °FOvercast.3 mph73%29.98 "HgN/A
6:50 PM70 °FPartly sunny.2 mph83%29.98 "HgN/A
6:20 PM70 °FDrizzle. Partly sunny.7 mph78%29.98 "HgN/A
Weather by CustomWeather, © 2015

See weather overviewHow to use our weather pages